Lewistown, MT

10:42 PM MDT on June 28, 2017 (GMT -0600)
Lewistown Municipal

Weather History for KLWT - December, 2012

Change the Weather History Date:

Sunday, December 2, 2012

  Actual Average Record
Temperature  
Mean Temperature 47 °F 26 °F  
Max Temperature 59 °F 36 °F 62 °F (1907)
Min Temperature 34 °F 15 °F -27 °F (1919)
Degree Days  
Heating Degree Days 18 39  
Month to date heating degree days 38 78  
Since 1 July heating degree days 1951 2206  
Cooling Degree Days 0 0  
Month to date cooling degree days 0 0  
Year to date cooling degree days 314 210  
Moisture  
Dew Point 29 °F    
Average Humidity 56    
Maximum Humidity 76    
Minimum Humidity 36    
Precipitation  
Precipitation T in 0.02 in 0.43 in (1930)
Month to date precipitation T 0.04  
Year to date precipitation 14.82 16.23  
Snow  
Snow 0.00 in - - ()
Snow Depth 0.00 in    
Sea Level Pressure  
Sea Level Pressure 29.43 in    
Wind  
Wind Speed 16 mph (SW)    
Max Wind Speed 41 mph    
Max Gust Speed 52 mph    
Visibility 10 miles    
Events Rain    
T = Trace of Precipitation, MM = Missing Value Source: NWS Daily Summary

Daily Weather History Graph

Daily Weather History Graph

Search for Another Location

Airport or City:

Trip Planner

Search our weather history database for the weather conditions in past years. The results will help you decide how hot, cold, wet, or windy it might be!

Date:

Astronomy

Dec. 02, 2012 Rise Set
Actual Time 7:44 AM MST 4:29 PM MST
Civil Twilight 7:10 AM MST 5:04 PM MST
Nautical Twilight 6:31 AM MST 5:43 PM MST
Astronomical Twilight 5:55 AM MST 6:19 PM MST
Moon 8:27 PM MST (12/2) 10:30 AM MST (12/2)
Length of Visible Light 9h 54m
Length of Day
8h 45m
Waning Gibbous, 85% of the Moon is Illuminated
Dec 2
Waning Gibbous
Dec 6
Last Quarter
Dec 13
New
Dec 19
First Quarter
Dec 28
Full

Hourly Weather History & Observations

Time (MST) Temp. Windchill Dew Point Humidity Pressure Visibility Wind Dir Wind Speed Gust Speed Precip Events Conditions
12:54 AM 43.0 °F 40.3 °F 30.0 °F 60% 29.66 in 10.0 mi West 4.6 mph - N/A   Mostly Cloudy
1:54 AM 37.9 °F 30.9 °F 30.0 °F 73% 29.62 in 10.0 mi WSW 10.4 mph - N/A   Clear
2:54 AM 39.0 °F 33.4 °F 28.9 °F 67% 29.58 in 10.0 mi ESE 8.1 mph - N/A   Clear
3:54 AM 37.9 °F 34.4 °F 28.0 °F 68% 29.56 in 10.0 mi ESE 4.6 mph - N/A   Clear
4:54 AM 42.1 °F 38.4 °F 28.9 °F 60% 29.53 in 10.0 mi ESE 5.8 mph - N/A   Partly Cloudy
5:54 AM 43.0 °F 39.5 °F 28.9 °F 58% 29.48 in 10.0 mi ESE 5.8 mph - N/A   Clear
6:54 AM 45.0 °F 39.7 °F 28.0 °F 52% 29.44 in 10.0 mi SSE 10.4 mph - N/A   Clear
7:54 AM 46.9 °F - 28.0 °F 48% 29.39 in 10.0 mi SSE 11.5 mph - N/A   Partly Cloudy
8:54 AM 48.9 °F - 30.0 °F 48% 29.37 in 10.0 mi West 12.7 mph - N/A   Mostly Cloudy
9:54 AM 53.1 °F - 30.0 °F 41% 29.30 in 10.0 mi SSW 15.0 mph - N/A   Partly Cloudy
10:54 AM 55.9 °F - 30.9 °F 39% 29.29 in 10.0 mi SW 28.8 mph 41.4 mph N/A   Clear
11:54 AM 55.0 °F - 32.0 °F 42% 29.24 in 10.0 mi SW 28.8 mph 38.0 mph N/A   Clear
12:54 PM 57.0 °F - 32.0 °F 39% 29.21 in 10.0 mi SSW 26.5 mph 39.1 mph N/A   Clear
2:54 PM 59.0 °F - 32.0 °F 36% 29.18 in 10.0 mi SW 26.5 mph 29.9 mph N/A   Clear
3:54 PM 55.9 °F - 32.0 °F 40% 29.20 in 10.0 mi West 6.9 mph - N/A   Partly Cloudy
4:54 PM 54.0 °F - 32.0 °F 43% 29.23 in 10.0 mi West 18.4 mph - N/A   Scattered Clouds
5:54 PM 41.0 °F 30.9 °F 36.0 °F 82% 29.39 in 9.0 mi WNW 24.2 mph 46.0 mph 0.00 in Rain Light Rain
6:54 PM 43.0 °F 35.1 °F 34.0 °F 71% 29.45 in 10.0 mi West 17.3 mph - 0.00 in   Overcast
7:54 PM 42.1 °F 32.3 °F 25.0 °F 51% 29.46 in 10.0 mi WSW 24.2 mph - N/A   Overcast
8:54 PM 41.0 °F 32.2 °F 26.1 °F 55% 29.51 in 10.0 mi West 18.4 mph 24.2 mph N/A   Mostly Cloudy
9:54 PM 39.9 °F 29.0 °F 21.0 °F 47% 29.54 in 10.0 mi West 26.5 mph 35.7 mph N/A   Clear
10:54 PM 34.0 °F 24.6 °F 19.9 °F 56% 29.58 in 10.0 mi WSW 13.8 mph - N/A   Clear
11:54 PM 34.0 °F 24.6 °F 19.0 °F 54% 29.61 in 10.0 mi WSW 13.8 mph 26.5 mph N/A   Clear